User: anonymous   Login
Location: Betpouey
(42.8833°N, 0.0333°E)
Time: 15:20:24
(UTC+00:00)
Language:

deb Delta - Orbit

View from above orbital plane
View from above orbital plane
View from above satellite
View from above satellite

Ground track
Ground track

The orbit data is extracted from the following two-line orbital elements,

1 21352U 75052BW  21175.55900517  .00000315  00000-0  77427-3 0  9999
2 21352  99.5203  17.8458 0294709 169.8057 260.8179 13.13458500435211
Epoch (UTC): 24 June 2021 13:24:58
Eccentricity: 0.0294709
inclination: 99.5203°
perigee height: 986 km
apogee height: 1433 km
right ascension of ascending node: 17.8458°
argument of perigee: 169.8057°
revolutions per day: 13.13458500
mean anomaly at epoch: 260.8179°
orbit number at epoch: 43521

The dashed part of the orbit path shows where the satellite is in the earth's shadow,  

DLR